Location: Berlise
(49.6641°N, 4.1077°E)
Time: 01:32:45
(UTC+00:00)

Cosmos 2034 Rocket - Pass Details

Date: 27 January 2021
Orbit: 957 x 1001 km, 82.9° (Epoch: 28 February)

Event Time Altitude Azimuth Distance (km) Brightness Sun altitude
Rises 04:48:40 0° 191° (S) 3,713 6.9 -24.8°
Reaches altitude 10° 04:51:12 10° 192° (SSW) 2,766 6.2 -24.4°
Maximum altitude 04:57:34 81° 279° (W) 1,018 3.9 -23.3°
Drops below altitude 10° 05:03:58 10° 8° (N) 2,767 6.4 -22.3°
Sets 05:06:29 0° 10° (N) 3,714 7.1 -21.9°
